RYR45L ELLX-EDDF

Flight info

Callsign RYR45L
Flight time 0h 32m
Altitude 23000
Route ASMOX1P ASMOX DCT RAMOB IMCOM1A
Aircraft B738/M-SDE2E3FGHIRWXY/LB1

Departure

Time 2026-05-06 14:03
Airport Luxembourg-Findel International Airport (ELLX)

Arrival

Time 2026-05-06 14:36
Airport Frankfurt Main Airport (EDDF)
Time Latitude Longitude Altitude Speed Heading
2026-05-06 13:45 49.63405 6.21853 1194 ft 0 kts 329°
2026-05-06 13:55 49.63396 6.21862 1194 ft 2 kts 331°
2026-05-06 13:55 49.63381 6.21873 1194 ft 2 kts 335°
2026-05-06 13:56 49.63366 6.21882 1195 ft 2 kts 350°
2026-05-06 13:56 49.63350 6.21878 1195 ft 2 kts 58°
2026-05-06 13:56 49.63347 6.21864 1195 ft 1 kts 75°
2026-05-06 13:56 49.63346 6.21863 1195 ft 0 kts 75°
2026-05-06 13:59 49.63352 6.21898 1195 ft 8 kts 75°
2026-05-06 13:59 49.63338 6.22008 1195 ft 12 kts 124°
2026-05-06 13:59 49.63280 6.22097 1196 ft 12 kts 142°
2026-05-06 13:59 49.63251 6.22203 1198 ft 12 kts 75°
2026-05-06 14:00 49.63287 6.22323 1198 ft 16 kts 64°
2026-05-06 14:00 49.63342 6.22488 1198 ft 17 kts 62°
2026-05-06 14:00 49.63398 6.22648 1198 ft 17 kts 61°
2026-05-06 14:00 49.63454 6.22801 1198 ft 16 kts 60°
2026-05-06 14:01 49.63509 6.22947 1199 ft 15 kts 61°
2026-05-06 14:01 49.63566 6.23102 1199 ft 20 kts 60°
2026-05-06 14:01 49.63645 6.23309 1199 ft 23 kts 59°
2026-05-06 14:01 49.63675 6.23385 1199 ft 0 kts 55°
2026-05-06 14:02 49.63656 6.23479 1204 ft 22 kts 152°
2026-05-06 14:02 49.63506 6.23471 1229 ft 17 kts 233°
2026-05-06 14:02 49.63496 6.23446 1229 ft 9 kts 240°
2026-05-06 14:02 49.63335 6.23022 1222 ft 83 kts 239°
2026-05-06 14:03 49.62948 6.21965 1218 ft 144 kts 240°
2026-05-06 14:03 49.62370 6.20421 1413 ft 179 kts 243°
2026-05-06 14:03 49.61736 6.18711 2124 ft 191 kts 243°
2026-05-06 14:03 49.61073 6.16854 2793 ft 199 kts 245°
2026-05-06 14:04 49.60381 6.14978 3452 ft 197 kts 243°
2026-05-06 14:04 49.59703 6.13198 3810 ft 189 kts 243°
2026-05-06 14:04 49.59033 6.11420 3789 ft 203 kts 242°
2026-05-06 14:04 49.58300 6.09460 4200 ft 209 kts 242°
2026-05-06 14:05 49.57569 6.07509 4631 ft 218 kts 242°
2026-05-06 14:05 49.56819 6.05352 4781 ft 238 kts 252°
2026-05-06 14:05 49.56755 6.02752 5013 ft 255 kts 287°
2026-05-06 14:05 49.57681 6.00473 5621 ft 260 kts 316°
2026-05-06 14:06 49.59284 5.99111 6208 ft 271 kts 344°
2026-05-06 14:06 49.61184 5.98866 6829 ft 279 kts
2026-05-06 14:06 49.63003 5.99931 7513 ft 285 kts 31°
2026-05-06 14:06 49.64681 6.01603 8239 ft 289 kts 32°
2026-05-06 14:07 49.66368 6.03332 8979 ft 293 kts 33°
2026-05-06 14:07 49.68063 6.05074 9778 ft 294 kts 33°
2026-05-06 14:07 49.69795 6.06844 10227 ft 307 kts 32°
2026-05-06 14:07 49.71645 6.08725 10378 ft 329 kts 32°
2026-05-06 14:08 49.73609 6.10713 10716 ft 343 kts 32°
2026-05-06 14:08 49.75629 6.12754 11304 ft 349 kts 32°
2026-05-06 14:08 49.77668 6.14814 12034 ft 351 kts 32°
2026-05-06 14:08 49.79722 6.16890 12761 ft 354 kts 32°
2026-05-06 14:09 49.81798 6.18987 13505 ft 358 kts 31°
2026-05-06 14:09 49.83882 6.21093 14308 ft 357 kts 32°
2026-05-06 14:09 49.85954 6.23191 15156 ft 356 kts 32°
2026-05-06 14:09 49.88027 6.25309 15927 ft 356 kts 35°
2026-05-06 14:10 49.89791 6.27943 16581 ft 360 kts 53°
2026-05-06 14:10 49.90960 6.31360 16793 ft 360 kts 73°
2026-05-06 14:10 49.91585 6.35115 16818 ft 359 kts 77°
2026-05-06 14:10 49.92141 6.38889 16790 ft 356 kts 78°
2026-05-06 14:11 49.92680 6.42619 16778 ft 354 kts 78°
2026-05-06 14:11 49.93221 6.46334 16777 ft 351 kts 78°
2026-05-06 14:11 49.93766 6.50034 16795 ft 351 kts 78°
2026-05-06 14:11 49.94317 6.53739 16788 ft 352 kts 78°
2026-05-06 14:12 49.94873 6.57453 16797 ft 354 kts 78°
2026-05-06 14:12 49.95433 6.61175 16785 ft 354 kts 78°
2026-05-06 14:12 49.95986 6.64848 16797 ft 354 kts 78°
2026-05-06 14:12 49.96545 6.68567 16797 ft 354 kts 78°
2026-05-06 14:13 49.97106 6.72302 16801 ft 354 kts 78°
2026-05-06 14:13 49.97665 6.76027 16802 ft 355 kts 78°
2026-05-06 14:13 49.98223 6.79758 16788 ft 350 kts 78°
2026-05-06 14:13 49.98766 6.83391 16779 ft 339 kts 78°
2026-05-06 14:14 49.99292 6.86913 16598 ft 333 kts 78°
2026-05-06 14:14 49.99818 6.90457 16196 ft 337 kts 78°
2026-05-06 14:14 50.00340 6.93978 15835 ft 341 kts 78°
2026-05-06 14:14 50.00872 6.97583 15473 ft 344 kts 78°
2026-05-06 14:15 50.01409 7.01220 15098 ft 346 kts 78°
2026-05-06 14:15 50.01945 7.04860 14732 ft 343 kts 78°
2026-05-06 14:15 50.02471 7.08441 14340 ft 336 kts 78°
2026-05-06 14:15 50.02985 7.11941 13970 ft 328 kts 77°
2026-05-06 14:16 50.03324 7.14260 13724 ft 323 kts 77°
2026-05-06 14:16 50.03815 7.17623 13331 ft 316 kts 77°
2026-05-06 14:16 50.04255 7.20952 12924 ft 312 kts 80°
2026-05-06 14:16 50.04627 7.24284 12582 ft 314 kts 81°
2026-05-06 14:17 50.04980 7.27591 12340 ft 314 kts 81°
2026-05-06 14:17 50.05336 7.30948 12086 ft 314 kts 81°
2026-05-06 14:17 50.05695 7.34297 11812 ft 314 kts 82°
2026-05-06 14:17 50.06058 7.37658 11559 ft 314 kts 81°
2026-05-06 14:18 50.06421 7.41006 11315 ft 314 kts 81°
2026-05-06 14:18 50.06786 7.44360 11059 ft 314 kts 82°
2026-05-06 14:18 50.07149 7.47694 10860 ft 310 kts 81°
2026-05-06 14:18 50.07512 7.51027 10804 ft 312 kts 81°
2026-05-06 14:19 50.07872 7.54339 10795 ft 310 kts 81°
2026-05-06 14:19 50.08230 7.57636 10780 ft 307 kts 82°
2026-05-06 14:19 50.08584 7.60906 10788 ft 307 kts 82°
2026-05-06 14:19 50.08938 7.64182 10790 ft 308 kts 82°
2026-05-06 14:20 50.09293 7.67476 10786 ft 309 kts 81°
2026-05-06 14:20 50.09643 7.70744 10793 ft 309 kts 82°
2026-05-06 14:20 50.09997 7.74050 10791 ft 310 kts 82°
2026-05-06 14:20 50.10357 7.77414 10802 ft 321 kts 82°
2026-05-06 14:21 50.10723 7.80848 10790 ft 321 kts 82°
2026-05-06 14:21 50.11091 7.84297 10793 ft 324 kts 82°
2026-05-06 14:21 50.11460 7.87781 10798 ft 327 kts 82°
2026-05-06 14:21 50.11830 7.91288 10794 ft 332 kts 82°
2026-05-06 14:22 50.12205 7.94842 10785 ft 330 kts 82°
2026-05-06 14:22 50.12575 7.98361 10784 ft 328 kts 82°
2026-05-06 14:22 50.12944 8.01879 10784 ft 330 kts 82°
2026-05-06 14:22 50.13313 8.05418 10780 ft 331 kts 82°
2026-05-06 14:23 50.13683 8.08964 10790 ft 332 kts 82°
2026-05-06 14:23 50.14052 8.12527 10791 ft 332 kts 82°
2026-05-06 14:23 50.14420 8.16084 10794 ft 333 kts 82°
2026-05-06 14:23 50.14789 8.19663 10791 ft 333 kts 82°
2026-05-06 14:24 50.15156 8.23231 10786 ft 333 kts 82°
2026-05-06 14:24 50.15522 8.26794 10794 ft 332 kts 82°
2026-05-06 14:24 50.15876 8.30260 10763 ft 324 kts 82°
2026-05-06 14:24 50.16226 8.33689 10764 ft 316 kts 82°
2026-05-06 14:25 50.16568 8.37054 10679 ft 309 kts 82°
2026-05-06 14:25 50.16899 8.40313 10584 ft 300 kts 82°
2026-05-06 14:25 50.17223 8.43524 10331 ft 300 kts 83°
2026-05-06 14:25 50.17549 8.46770 9903 ft 305 kts 83°
2026-05-06 14:26 50.17876 8.50040 9457 ft 306 kts 83°
2026-05-06 14:26 50.18205 8.53330 8986 ft 307 kts 83°
2026-05-06 14:26 50.18532 8.56605 8507 ft 303 kts 83°
2026-05-06 14:26 50.18856 8.59860 8207 ft 300 kts 83°
2026-05-06 14:27 50.19169 8.63006 7790 ft 301 kts 83°
2026-05-06 14:27 50.19489 8.66246 7312 ft 299 kts 83°
2026-05-06 14:27 50.19804 8.69442 6970 ft 295 kts 83°
2026-05-06 14:27 50.20115 8.72590 6669 ft 290 kts 83°
2026-05-06 14:28 50.20417 8.75663 6378 ft 281 kts 83°
2026-05-06 14:28 50.20708 8.78631 6218 ft 271 kts 83°
2026-05-06 14:28 50.20985 8.81468 6076 ft 258 kts 83°
2026-05-06 14:28 50.21245 8.84225 5841 ft 257 kts 84°
2026-05-06 14:29 50.21200 8.87027 5467 ft 266 kts 109°
2026-05-06 14:29 50.20311 8.89555 5002 ft 268 kts 136°
2026-05-06 14:29 50.18847 8.91345 4509 ft 269 kts 158°
2026-05-06 14:29 50.17072 8.92132 4118 ft 261 kts 171°
2026-05-06 14:30 50.15332 8.92598 3999 ft 246 kts 174°
2026-05-06 14:30 50.13654 8.92896 3979 ft 240 kts 187°
2026-05-06 14:30 50.12185 8.92048 3975 ft 223 kts 223°
2026-05-06 14:30 50.11455 8.90082 4006 ft 204 kts 254°
2026-05-06 14:31 50.11077 8.88040 3973 ft 188 kts 249°
2026-05-06 14:31 50.10637 8.86184 3964 ft 182 kts 249°
2026-05-06 14:31 50.10189 8.84330 3820 ft 184 kts 248°
2026-05-06 14:31 50.09744 8.82494 3593 ft 179 kts 249°
2026-05-06 14:32 50.09310 8.80698 3350 ft 174 kts 249°
2026-05-06 14:32 50.08889 8.78957 3109 ft 170 kts 250°
2026-05-06 14:32 50.08475 8.77241 2895 ft 169 kts 249°
2026-05-06 14:32 50.08064 8.75538 2663 ft 168 kts 249°
2026-05-06 14:33 50.07652 8.73827 2460 ft 170 kts 250°
2026-05-06 14:33 50.07245 8.72138 2221 ft 166 kts 250°
2026-05-06 14:33 50.06912 8.70435 1906 ft 163 kts 258°
2026-05-06 14:33 50.06679 8.68703 1613 ft 163 kts 259°
2026-05-06 14:34 50.06449 8.67029 1463 ft 155 kts 257°
2026-05-06 14:34 50.06166 8.65494 1311 ft 138 kts 249°
2026-05-06 14:34 50.05810 8.64122 1085 ft 136 kts 249°
2026-05-06 14:34 50.05471 8.62747 849 ft 137 kts 251°
2026-05-06 14:35 50.05168 8.61361 718 ft 134 kts 249°
2026-05-06 14:35 50.04826 8.59983 623 ft 136 kts 249°
2026-05-06 14:35 50.04502 8.58646 385 ft 129 kts 249°
2026-05-06 14:35 50.04219 8.57461 349 ft 98 kts 249°
2026-05-06 14:36 50.04035 8.56681 348 ft 55 kts 250°
2026-05-06 14:36 50.04009 8.56241 350 ft 33 kts 279°
2026-05-06 14:36 50.04018 8.56165 347 ft 0 kts 284°
2026-05-06 14:37 50.04023 8.56154 346 ft 4 kts 309°
2026-05-06 14:37 50.04029 8.56148 352 ft 0 kts 327°
2026-05-06 14:37 50.04045 8.56139 348 ft 8 kts 345°
2026-05-06 14:38 50.04106 8.56194 351 ft 12 kts 66°
2026-05-06 14:38 50.04136 8.56315 347 ft 12 kts 70°
2026-05-06 14:38 50.04165 8.56445 345 ft 14 kts 71°
2026-05-06 14:38 50.04206 8.56613 348 ft 19 kts 69°
2026-05-06 14:39 50.04254 8.56815 351 ft 20 kts 69°
2026-05-06 14:39 50.04302 8.57013 351 ft 19 kts 69°
2026-05-06 14:39 50.04349 8.57204 350 ft 19 kts 70°
2026-05-06 14:39 50.04392 8.57391 353 ft 19 kts 69°
2026-05-06 14:40 50.04449 8.57627 350 ft 25 kts 70°
2026-05-06 14:40 50.04506 8.57872 352 ft 23 kts 68°
2026-05-06 14:40 50.04600 8.58019 345 ft 21 kts 353°
2026-05-06 14:40 50.04736 8.57953 350 ft 20 kts 354°
2026-05-06 14:41 50.04816 8.58104 345 ft 20 kts 68°
2026-05-06 14:41 50.04861 8.58301 351 ft 19 kts 69°
2026-05-06 14:41 50.04907 8.58488 348 ft 15 kts 69°
2026-05-06 14:41 50.04917 8.58529 347 ft 0 kts 69°
2026-05-06 14:44 50.04917 8.58530 347 ft 1 kts 69°
2026-05-06 14:44 50.04920 8.58540 352 ft 3 kts 63°
2026-05-06 14:45 50.04980 8.58683 350 ft 12 kts 72°
2026-05-06 14:45 50.05004 8.58805 352 ft 12 kts 70°
2026-05-06 14:45 50.05034 8.58933 351 ft 12 kts 69°
2026-05-06 14:45 50.05065 8.59058 348 ft 12 kts 69°